DT_LEITURA;HR_LEITURA;MED-PressaoAtm[hPa];VAL-TempExt[oC];VAL-UmidExt[%UR];VAL-TempInt[oC];VAL-UmidInt[%UR];Dir-Vento[grau];Vel-Vento[m/s];Precipitação[mm/h]
10/08/2026;00:04:00;1024,7;;;14,4;76;203;1,2;0,0
10/08/2026;00:09:00;1024,7;;;14,4;76;228;1,2;0,0
10/08/2026;00:14:00;1024,7;;;14,4;76;262;1,5;0,0
10/08/2026;00:19:00;1024,7;;;14,5;76;230;1,3;0,0
10/08/2026;00:24:00;1024,6;;;14,5;76;225;1,6;0,0
10/08/2026;00:29:00;1024,7;;;14,5;76;237;1,7;0,0
10/08/2026;00:34:00;1024,7;;;14,5;76;244;1,8;0,0
10/08/2026;00:39:00;1024,7;;;14,6;76;241;2,2;0,0
10/08/2026;00:44:00;1024,8;;;14,6;76;232;2,1;0,0
10/08/2026;00:49:00;1024,7;;;14,6;76;233;1,9;0,0
10/08/2026;00:54:00;1024,7;;;14,6;76;242;2,1;0,0
10/08/2026;00:59:00;1024,7;;;14,7;76;241;2,3;0,0
10/08/2026;01:04:00;1024,8;;;14,7;76;246;2,1;0,0
10/08/2026;01:09:00;1024,9;;;14,7;76;254;2,1;0,0
10/08/2026;01:14:00;1024,9;;;14,7;76;243;2,5;0,0
10/08/2026;01:19:00;1025,0;;;14,7;76;249;2,5;0,0
10/08/2026;01:24:00;1025,0;;;14,7;76;245;2,5;0,0
10/08/2026;01:29:00;1025,0;;;14,7;76;236;2,4;0,0
10/08/2026;01:34:00;1024,9;;;14,7;76;235;2,3;0,0
10/08/2026;01:39:00;1024,9;;;14,7;76;235;2,1;0,0
10/08/2026;01:44:00;1024,9;;;14,7;76;236;2,1;0,0
10/08/2026;01:49:00;1025,0;;;14,7;76;240;2,5;0,0
10/08/2026;01:54:00;1025,0;;;14,8;76;244;2,8;0,0
10/08/2026;01:59:00;1025,0;;;14,8;76;242;3,1;0,0
10/08/2026;02:04:00;1025,0;;;14,8;76;246;2,8;0,0
10/08/2026;02:09:00;1025,0;;;14,8;76;241;2,7;0,0
10/08/2026;02:14:00;1025,0;;;14,8;75;246;3,1;0,0
10/08/2026;02:19:00;1025,0;;;14,8;75;235;3,3;0,0
10/08/2026;02:24:00;1025,0;;;14,8;75;237;3,2;0,0
10/08/2026;02:29:00;1025,0;;;14,8;75;241;3,0;0,0
10/08/2026;02:34:00;1025,0;;;14,8;75;240;3,1;0,0
10/08/2026;02:39:00;1025,0;;;14,8;75;248;3,4;0,0
10/08/2026;02:44:00;1025,0;;;14,8;75;238;3,4;0,0
10/08/2026;02:49:00;1024,9;;;14,8;75;239;3,0;0,0
10/08/2026;02:54:00;1025,0;;;14,8;75;239;3,2;0,0
10/08/2026;02:59:00;1025,0;;;14,8;75;240;3,0;0,0
10/08/2026;03:04:00;1025,0;;;14,8;75;238;3,6;0,0
10/08/2026;03:09:00;1025,0;;;14,8;75;247;3,7;0,0
10/08/2026;03:14:00;1025,0;;;14,8;75;247;2,5;0,0
10/08/2026;03:19:00;1024,9;;;14,8;75;244;3,5;0,0
10/08/2026;03:24:00;1024,9;;;14,8;75;241;3,8;0,0
10/08/2026;03:29:00;1024,9;;;14,8;75;241;3,0;0,0
10/08/2026;03:34:00;1024,9;;;14,8;75;234;2,8;0,0
10/08/2026;03:39:00;1025,0;;;14,8;75;238;3,0;0,0
10/08/2026;03:44:00;1024,9;;;14,7;75;237;3,1;0,0
10/08/2026;03:49:00;1024,9;;;14,7;75;249;3,2;0,0
10/08/2026;03:54:00;1025,0;;;14,7;75;241;3,0;0,0
10/08/2026;03:59:00;1025,0;;;14,7;75;244;3,7;0,0
10/08/2026;04:04:00;1025,0;;;14,7;75;245;3,1;0,0
10/08/2026;04:09:00;1025,0;;;14,7;75;246;3,0;0,0
10/08/2026;04:14:00;1025,0;;;14,7;75;243;3,1;0,0
10/08/2026;04:19:00;1025,0;;;14,7;75;239;2,5;0,0
10/08/2026;04:24:00;1025,0;;;14,7;75;247;2,7;0,0
10/08/2026;04:29:00;1024,9;;;14,7;75;243;2,8;0,0
10/08/2026;04:34:00;1024,9;;;14,7;75;246;3,3;0,0
10/08/2026;04:39:00;1025,0;;;14,7;75;248;3,0;0,0
10/08/2026;04:44:00;1025,0;;;14,6;75;245;2,8;0,0
10/08/2026;04:49:00;1025,0;;;14,6;75;248;3,2;0,0
10/08/2026;04:54:00;1025,1;;;14,6;75;241;3,1;0,0
10/08/2026;04:59:00;1025,1;;;14,6;75;248;3,2;0,0
10/08/2026;05:04:00;1025,2;;;14,6;75;242;3,5;0,0
10/08/2026;05:09:00;1025,2;;;14,6;75;243;3,4;0,0
10/08/2026;05:14:00;1025,1;;;14,6;75;252;3,1;0,0
10/08/2026;05:19:00;1025,2;;;14,6;75;242;2,7;0,0
10/08/2026;05:24:00;1025,3;;;14,6;75;246;2,9;0,0
10/08/2026;05:29:00;1025,3;;;14,6;75;245;2,9;0,0
10/08/2026;05:34:00;1025,3;;;14,6;75;244;2,7;0,0
10/08/2026;05:39:00;1025,3;;;14,6;75;245;2,8;0,0
10/08/2026;05:44:00;1025,5;;;14,6;75;245;2,9;0,0
10/08/2026;05:49:00;1025,6;;;14,6;75;244;2,6;0,0
10/08/2026;05:54:00;1025,7;;;14,6;75;249;2,7;0,0
10/08/2026;05:59:00;1025,8;;;14,6;75;242;3,5;0,0
10/08/2026;06:04:00;1026,0;;;14,5;75;240;3,0;0,0
10/08/2026;06:09:00;1026,1;;;14,5;75;245;2,8;0,0
10/08/2026;06:14:00;1026,2;;;14,5;75;246;3,2;0,0
10/08/2026;06:19:00;1026,3;;;14,5;75;251;3,3;0,0
10/08/2026;06:24:00;1026,3;;;14,5;75;244;3,7;0,0
10/08/2026;06:29:00;1026,3;;;14,5;75;244;3,3;0,0
10/08/2026;06:34:00;1026,5;;;14,5;75;244;3,9;0,0
10/08/2026;06:39:00;1026,7;;;14,5;75;242;3,4;0,0
10/08/2026;06:44:00;1026,8;;;14,5;75;242;4,0;0,0
10/08/2026;06:49:00;1026,8;;;14,5;75;243;3,6;0,0
10/08/2026;06:54:00;1026,9;;;14,5;75;244;3,8;0,0
10/08/2026;06:59:00;1027,0;;;14,5;75;246;3,6;0,0
10/08/2026;07:04:00;1027,0;;;14,5;75;242;3,2;0,0
10/08/2026;07:09:00;1027,2;;;14,5;75;250;3,1;0,0
10/08/2026;07:14:00;1027,3;;;14,6;75;245;3,8;0,0
10/08/2026;07:19:00;1027,4;;;14,6;75;244;3,8;0,0
10/08/2026;07:24:00;1027,5;;;14,6;75;233;4,1;0,0
10/08/2026;07:29:00;1027,6;;;14,6;75;242;4,0;0,0
10/08/2026;07:34:00;1027,8;;;14,6;75;241;3,5;0,0
10/08/2026;07:39:00;1027,8;;;14,6;75;246;4,0;0,0
10/08/2026;07:44:00;1027,8;;;14,6;75;245;4,3;0,0
10/08/2026;07:49:00;1027,9;;;14,6;75;247;4,3;0,0
10/08/2026;07:54:00;1028,1;;;14,7;75;239;4,1;0,0
10/08/2026;07:59:00;1028,3;;;14,7;75;245;4,2;0,0
10/08/2026;08:04:00;1028,4;;;14,7;75;245;4,1;0,0
10/08/2026;08:09:00;1028,4;;;14,7;75;241;4,4;0,0
10/08/2026;08:14:00;1028,5;;;14,7;75;244;4,6;0,0
10/08/2026;08:19:00;1028,6;;;14,8;75;249;4,2;0,0
10/08/2026;08:24:00;1028,7;;;14,8;75;246;4,5;0,0
10/08/2026;08:29:00;1028,9;;;14,9;75;252;4,3;0,0
10/08/2026;08:34:00;1028,9;;;14,9;75;248;5,0;0,0
10/08/2026;08:39:00;1028,9;;;14,9;75;240;4,8;0,0
10/08/2026;08:44:00;1029,0;;;15,0;75;238;4,7;0,0
10/08/2026;08:49:00;1029,0;;;15,0;75;247;4,8;0,0
10/08/2026;08:54:00;1029,2;;;15,1;75;245;5,0;0,0
10/08/2026;08:59:00;1029,2;;;15,1;75;249;4,8;0,0
10/08/2026;09:04:00;1029,4;;;15,2;75;242;5,4;0,0
10/08/2026;09:09:00;1029,5;;;15,2;74;244;5,3;0,0
10/08/2026;09:14:00;1029,6;;;15,3;74;241;5,6;0,0
10/08/2026;09:19:00;1029,7;;;15,3;74;246;5,1;0,0
10/08/2026;09:24:00;1029,5;;;15,4;74;244;4,5;0,0
10/08/2026;09:29:00;1029,4;;;15,4;75;245;5,1;0,0
10/08/2026;09:34:00;1029,6;;;15,5;75;251;4,7;0,0
10/08/2026;09:39:00;1029,7;;;15,7;75;245;6,2;0,0
10/08/2026;09:44:00;1029,8;;;15,9;75;244;4,6;0,0
10/08/2026;09:49:00;1029,8;;;16,2;75;242;6,0;0,0
10/08/2026;09:54:00;1029,9;;;16,4;74;243;5,2;0,0
10/08/2026;09:59:00;1030,1;;;16,5;74;246;6,1;0,0
10/08/2026;10:04:00;1030,2;;;16,7;74;246;5,0;0,0
10/08/2026;10:09:00;1030,1;;;16,8;73;240;6,1;0,0
10/08/2026;10:14:00;1030,1;;;16,9;73;244;6,3;0,0
10/08/2026;10:19:00;1030,2;;;16,9;73;248;6,4;0,0
10/08/2026;10:24:00;1030,4;;;17,0;73;243;6,0;0,0
10/08/2026;10:29:00;1030,4;;;17,1;73;249;5,9;0,0
10/08/2026;10:34:00;1030,3;;;17,2;73;247;6,1;0,0
10/08/2026;10:39:00;1030,2;;;17,3;73;241;6,6;0,0
10/08/2026;10:44:00;1030,3;;;17,3;73;246;6,7;0,0
10/08/2026;10:49:00;1030,3;;;17,4;73;240;4,8;0,0
10/08/2026;10:54:00;1030,1;;;17,4;73;245;6,4;0,0
10/08/2026;10:59:00;1030,1;;;17,4;73;241;6,4;0,0
10/08/2026;11:04:00;1030,1;;;17,5;73;237;6,0;0,0
10/08/2026;11:09:00;1030,2;;;17,6;72;229;7,3;0,0
10/08/2026;11:14:00;1030,1;;;17,5;72;227;7,3;0,0
10/08/2026;11:19:00;1030,0;;;17,5;72;242;6,6;0,0
10/08/2026;11:24:00;1030,0;;;17,5;73;238;7,3;0,0
10/08/2026;11:29:00;1030,0;;;17,6;73;237;8,0;0,0
10/08/2026;11:34:00;1030,2;;;17,6;73;232;7,8;0,0
10/08/2026;11:39:00;1030,2;;;17,6;72;228;7,7;0,0
10/08/2026;11:44:00;1030,1;;;17,5;72;230;7,3;0,0
10/08/2026;11:49:00;1030,0;;;17,5;72;240;6,2;0,0
10/08/2026;11:54:00;1030,0;;;17,5;73;225;6,9;0,0
10/08/2026;11:59:00;1029,8;;;17,6;73;229;6,4;0,0
10/08/2026;12:04:00;1029,7;;;17,6;72;236;7,4;0,0
10/08/2026;12:09:00;1029,8;;;17,6;73;233;6,4;0,0
10/08/2026;12:14:00;1029,7;;;17,7;72;237;6,5;0,0
10/08/2026;12:19:00;1029,6;;;17,7;72;230;8,0;0,0
10/08/2026;12:24:00;1029,5;;;17,7;72;233;7,6;0,0
10/08/2026;12:29:00;1029,5;;;17,7;72;231;7,9;0,0
10/08/2026;12:34:00;1029,7;;;17,6;72;232;8,2;0,0
10/08/2026;12:39:00;1029,8;;;17,6;72;228;6,8;0,0
10/08/2026;12:44:00;1029,8;;;17,6;72;234;6,8;0,0
10/08/2026;12:49:00;1029,8;;;17,6;72;232;6,6;0,0
10/08/2026;12:54:00;1029,8;;;17,7;72;228;7,3;0,0
10/08/2026;12:59:00;1029,7;;;17,7;72;225;7,6;0,0
10/08/2026;13:04:00;1029,7;;;17,7;72;227;7,4;0,0
10/08/2026;13:09:00;1029,7;;;17,7;72;231;8,6;0,0
10/08/2026;13:14:00;1029,7;;;17,7;72;229;6,6;0,0
10/08/2026;13:19:00;1029,6;;;17,7;72;233;8,3;0,0
10/08/2026;13:24:00;1029,5;;;17,8;71;232;8,2;0,0
10/08/2026;13:29:00;1029,4;;;17,8;71;235;8,0;0,0
10/08/2026;13:34:00;1029,4;;;17,8;71;229;7,3;0,0
10/08/2026;13:39:00;1029,3;;;17,8;71;232;7,1;0,0
10/08/2026;13:44:00;1029,2;;;17,8;71;235;8,1;0,0
10/08/2026;13:49:00;1029,2;;;17,8;71;233;7,8;0,0
10/08/2026;13:54:00;1029,2;;;17,8;71;230;6,8;0,0
10/08/2026;13:59:00;1029,1;;;17,8;71;229;7,9;0,0
10/08/2026;14:04:00;1029,2;;;17,8;71;224;6,5;0,0
10/08/2026;14:09:00;1029,1;;;17,9;71;232;5,9;0,0
10/08/2026;14:14:00;1029,2;;;17,9;71;229;6,3;0,0
10/08/2026;14:19:00;1029,1;;;17,9;71;231;7,4;0,0
10/08/2026;14:24:00;1029,0;;;18,0;71;230;6,7;0,0
10/08/2026;14:29:00;1029,0;;;18,0;71;233;4,7;0,0
10/08/2026;14:34:00;1028,8;;;18,0;71;230;6,3;0,0
10/08/2026;14:39:00;1028,8;;;18,0;71;233;7,2;0,0
10/08/2026;14:44:00;1028,8;;;18,0;70;235;7,4;0,0
10/08/2026;14:49:00;1028,9;;;18,0;70;233;6,6;0,0
10/08/2026;14:54:00;1028,9;;;18,0;70;232;6,6;0,0
10/08/2026;14:59:00;1028,9;;;18,0;70;235;6,5;0,0
10/08/2026;15:04:00;1028,9;;;18,0;70;229;6,0;0,0
10/08/2026;15:09:00;1028,9;;;17,9;70;223;5,8;0,0
10/08/2026;15:14:00;1029,0;;;17,9;70;231;7,0;0,0
10/08/2026;15:19:00;1029,1;;;17,9;70;237;6,1;0,0
10/08/2026;15:24:00;1029,2;;;17,9;70;227;6,5;0,0
10/08/2026;15:29:00;1029,2;;;17,8;70;233;6,3;0,0
10/08/2026;15:34:00;1029,1;;;17,8;70;230;5,5;0,0
10/08/2026;15:39:00;1029,1;;;17,8;70;232;5,9;0,0
10/08/2026;15:44:00;1029,1;;;17,8;70;231;6,6;0,0
10/08/2026;15:49:00;1029,1;;;17,8;70;230;6,5;0,0
10/08/2026;15:54:00;1029,1;;;17,8;69;232;6,4;0,0
10/08/2026;15:59:00;1029,2;;;17,8;68;231;6,3;0,0
10/08/2026;16:04:00;1029,2;;;17,7;68;229;5,2;0,0
10/08/2026;16:09:00;1029,1;;;17,6;69;226;6,1;0,0
10/08/2026;16:14:00;1029,1;;;17,5;69;236;6,6;0,0
10/08/2026;16:19:00;1029,3;;;17,5;70;234;6,1;0,0
10/08/2026;16:24:00;1029,4;;;17,6;69;234;5,9;0,0
10/08/2026;16:29:00;1029,2;;;17,6;69;238;5,9;0,0
10/08/2026;16:34:00;1029,3;;;17,4;69;232;5,7;0,0
10/08/2026;16:39:00;1029,3;;;17,3;69;233;5,8;0,0
10/08/2026;16:44:00;1029,3;;;17,3;69;233;5,4;0,0
10/08/2026;16:49:00;1029,4;;;17,3;70;229;5,6;0,0
10/08/2026;16:54:00;1029,3;;;17,3;69;232;5,8;0,0
10/08/2026;16:59:00;1029,2;;;17,2;69;236;5,3;0,0
10/08/2026;17:04:00;1029,3;;;17,1;69;224;4,5;0,0
10/08/2026;17:09:00;1029,2;;;17,0;69;236;4,7;0,0
10/08/2026;17:14:00;1029,3;;;16,9;69;234;4,5;0,0
10/08/2026;17:19:00;1029,3;;;16,8;70;232;4,6;0,0
10/08/2026;17:24:00;1029,2;;;16,8;69;227;3,9;0,0
10/08/2026;17:29:00;1029,2;;;16,8;69;239;5,1;0,0
10/08/2026;17:34:00;1029,2;;;16,7;70;230;4,0;0,0
10/08/2026;17:39:00;1028,9;;;16,6;70;234;5,3;0,0
10/08/2026;17:44:00;1029,1;;;16,4;70;230;4,3;0,0
10/08/2026;17:49:00;1029,1;;;16,3;70;234;4,0;0,0
10/08/2026;17:54:00;1029,2;;;16,2;70;241;3,3;0,0
10/08/2026;17:59:00;1029,3;;;16,0;70;253;3,7;0,0
10/08/2026;18:04:00;1029,4;;;15,9;70;246;3,6;0,0
10/08/2026;18:09:00;1029,6;;;15,8;70;245;4,0;0,0
10/08/2026;18:14:00;1029,6;;;15,7;71;248;3,8;0,0
10/08/2026;18:19:00;1029,7;;;15,5;71;240;3,8;0,0
10/08/2026;18:24:00;1029,7;;;15,5;71;244;2,9;0,0
10/08/2026;18:29:00;1029,8;;;15,4;71;241;2,8;0,0
10/08/2026;18:34:00;1029,8;;;15,3;71;248;3,2;0,0
10/08/2026;18:39:00;1029,9;;;15,2;71;246;3,7;0,0
10/08/2026;18:44:00;1029,9;;;15,2;71;246;3,1;0,0
10/08/2026;18:49:00;1029,9;;;15,1;71;246;3,0;0,0
10/08/2026;18:54:00;1030,0;;;15,1;71;250;3,0;0,0
10/08/2026;18:59:00;1030,1;;;15,0;71;247;3,0;0,0
10/08/2026;19:04:00;1030,2;;;15,0;71;244;3,2;0,0
10/08/2026;19:09:00;1030,4;;;14,9;71;243;3,0;0,0
10/08/2026;19:14:00;1030,3;;;14,9;71;250;2,8;0,0
10/08/2026;19:19:00;1030,4;;;14,8;71;244;3,0;0,0
10/08/2026;19:24:00;1030,5;;;14,8;71;241;3,0;0,0
10/08/2026;19:29:00;1030,5;;;14,8;71;239;2,0;0,0
10/08/2026;19:34:00;1030,5;;;14,8;71;239;2,5;0,0
10/08/2026;19:39:00;1030,5;;;14,7;71;241;2,4;0,0
10/08/2026;19:44:00;1030,5;;;14,7;71;247;2,6;0,0
10/08/2026;19:49:00;1030,5;;;14,7;71;251;2,7;0,0
10/08/2026;19:54:00;1030,5;;;14,6;71;248;2,9;0,0
10/08/2026;19:59:00;1030,4;;;14,6;71;247;2,5;0,0
10/08/2026;20:04:00;1030,4;;;14,6;71;248;2,5;0,0
10/08/2026;20:09:00;1030,4;;;14,5;71;253;2,8;0,0
10/08/2026;20:14:00;1030,5;;;14,5;71;247;2,4;0,0
10/08/2026;20:19:00;1030,6;;;14,4;71;251;3,2;0,0
10/08/2026;20:24:00;1030,7;;;14,4;71;251;3,0;0,0
10/08/2026;20:29:00;1030,8;;;14,4;71;246;3,3;0,0
10/08/2026;20:34:00;1030,9;;;14,3;71;234;2,5;0,0
10/08/2026;20:39:00;1030,9;;;14,3;71;230;2,1;0,0
10/08/2026;20:44:00;1030,8;;;14,2;71;234;2,1;0,0
10/08/2026;20:49:00;1030,8;;;14,2;71;235;2,1;0,0
10/08/2026;20:54:00;1030,8;;;14,1;71;233;2,5;0,0
10/08/2026;20:59:00;1030,7;;;14,1;71;227;2,1;0,0
10/08/2026;21:04:00;1030,8;;;14,1;71;235;2,0;0,0
10/08/2026;21:09:00;1030,9;;;14,0;71;232;2,3;0,0
10/08/2026;21:14:00;1031,0;;;14,0;71;223;2,2;0,0
10/08/2026;21:19:00;1031,1;;;14,0;71;236;2,8;0,0
10/08/2026;21:24:00;1031,2;;;14,0;71;245;2,2;0,0
10/08/2026;21:29:00;1031,2;;;14,0;71;234;2,5;0,0
10/08/2026;21:34:00;1031,1;;;14,0;71;234;2,0;0,0
10/08/2026;21:39:00;1031,2;;;14,0;71;243;2,3;0,0
10/08/2026;21:44:00;1031,3;;;14,0;71;239;2,4;0,0
10/08/2026;21:49:00;1031,4;;;14,0;71;239;1,9;0,0
10/08/2026;21:54:00;1031,5;;;13,9;71;237;2,1;0,0
10/08/2026;21:59:00;1031,6;;;13,9;71;254;2,4;0,0
10/08/2026;22:04:00;1031,5;;;13,9;71;246;2,8;0,0
10/08/2026;22:09:00;1031,5;;;13,9;71;238;2,4;0,0
10/08/2026;22:14:00;1031,5;;;13,9;71;242;1,6;0,0
10/08/2026;22:19:00;1031,6;;;13,9;71;243;2,3;0,0
10/08/2026;22:24:00;1031,5;;;13,9;71;238;2,0;0,0
10/08/2026;22:29:00;1031,5;;;13,9;71;246;1,6;0,0
10/08/2026;22:34:00;1031,4;;;14,0;71;248;1,6;0,0
10/08/2026;22:39:00;1031,4;;;14,0;71;248;1,5;0,0
10/08/2026;22:44:00;1031,5;;;14,0;71;251;2,3;0,0
10/08/2026;22:49:00;1031,5;;;14,1;71;242;2,5;0,0
10/08/2026;22:54:00;1031,4;;;14,1;71;248;2,5;0,0
10/08/2026;22:59:00;1031,4;;;14,1;71;248;2,3;0,0
10/08/2026;23:04:00;1031,4;;;14,1;71;246;2,4;0,0
10/08/2026;23:09:00;1031,3;;;14,1;71;245;2,3;0,0
10/08/2026;23:14:00;1031,2;;;14,1;70;252;2,4;0,0
10/08/2026;23:19:00;1031,2;;;14,1;70;238;2,5;0,0
10/08/2026;23:24:00;1031,2;;;14,1;70;239;2,7;0,0
10/08/2026;23:29:00;1031,2;;;14,1;70;244;2,6;0,0
10/08/2026;23:34:00;1031,2;;;14,1;70;249;3,0;0,0
10/08/2026;23:39:00;1031,3;;;14,1;70;241;2,8;0,0
10/08/2026;23:44:00;1031,2;;;14,0;70;239;2,7;0,0
10/08/2026;23:49:00;1031,3;;;14,0;70;243;2,6;0,0
10/08/2026;23:54:00;1031,3;;;13,9;70;247;2,5;0,0
10/08/2026;23:59:00;1031,3;;;13,9;70;245;2,7;0,0
